Location: Prairie Dale
(45.6972°N, 104.5033°W)
Time: 08:04:24
(UTC+00:00)

Envisat - Pass Details

Date: 25 January 2022
Orbit: 764 x 765 km, 98.2° (Epoch: 16 May)

Event Time Altitude Azimuth Distance (km) Brightness Sun altitude
Rises 11:35:52 0° 17° (NNE) 3,241 6.5 -29.8°
Reaches altitude 10° 11:38:13 10° 21° (NNE) 2,311 5.7 -29.4°
Maximum altitude 11:43:14 57° 100° (E) 901 3.5 -28.5°
Drops below altitude 10° 11:48:13 10° 179° (S) 2,295 5.4 -27.6°
Sets 11:50:33 0° 184° (S) 3,217 6.2 -27.2°
